COSMOS 886 DEB, 20673

Orbit data source: Space-Track

COSMOS 886 DEB, 20673 is space debris in LEO originally from a launch on Mon, 27 Dec 1976 UTC launched from the Tyuratam Missile And Space Complex (TTMTR). Debris objects in space refer to the collection of defunct objects orbiting the Earth. Examples of debris include non-operational satellites, rocket bodies, and fragments generated from explosions, collisions, or faulty payload assembly.

Loading next visibility...
Identifier
20673, 1976-126CG
Orbit
LEO
Country
Flag of CISCIS
Related business
Manufacturer
Unknown
Mission
Spacecraft
Bus & Motor
Unknown
Mass
Unknown
Launch date (UTC)
1976-12-27 (49 years ago)
Launch vehicle
Unknown
Launch site
Tyuratam Missile And Space Complex (TTMTR)
Object type
Payload
Rocket body
Debris
Shape & HBR
Unknown shape, 0.1 m
Radar Cross Section
Small (<0.1 m²)

Expand to show TLE details & history
Last TLE update: 1 day ago

TLE from 1 day ago
0 COSMOS 886 DEB
1 20673U 76126CG  26129.51776023  .00007837  00000-0  81653-3 0  9992
2 20673  65.5637 320.8383 0266012 243.4647 113.8969 14.67682845721677
Epoch: 2026-05-09T12:25Z
TLE epoch observation values (Epoch: 2026-05-09T12:25:34.483Z)
Latitude
-0.00002°
Longitude
-92.88944°
Altitude
750.569 km
Speed
7.437 km/s
True Right ascension
21h 23m 21s
True Declination
0° 00' 00"
Sunlit
Object was in daylight at epoch
Visualization orbit readout
Latitude
Unknown
Longitude
Unknown
Altitude
Unknown
Speed
Unknown
Apparent Right ascension
Unknown
Apparent Declination
Unknown
Sunlit
N/A
Visualization observer readout
Local Sidereal Time
20:32:23
Azimuth
Unknown
Elevation
Unknown
Doppler factor
Unknown
Orbital elements
Apogee altitude
854.365 km
Perigee altitude
479.549 km
Semi-major axis
7,045.094 km
Eccentricity
0.0266
Inclination
65.5637°
RAAN
320.8383°
Arg. of periapsis
243.4647°
True anomaly
116.64575°
Mean anomaly
113.8969°
Eccentric anomaly
115.27513°
Mean motion
3.6704 °/min
Orbital period
98.08 mins
BSTAR
0.00081653
Loading maneuver chart data...
Computing Atmospheric mass density...
Loading historical data...
Loading historical data...
Loading historical data...
Loading historical data...
Loading historical data...
Loading historical data...
Loading historical data...

Documentation

Showing up to 5 results
|